Weather History for Sioux City, IA

Change the Weather History Date:

Saturday, March 15, 2014

  Actual Average Record
Temperature  
Mean Temperature 36 °F 36 °F  
Max Temperature 43 °F 47 °F 85 °F (1935)
Min Temperature 29 °F 25 °F -4 °F (1897)
Degree Days  
Heating Degree Days 29 29  
Month to date heating degree days 533 480  
Since 1 July heating degree days 6137 5774  
Cooling Degree Days 0 0  
Month to date cooling degree days 0 0  
Year to date cooling degree days 0 0  
Moisture  
Dew Point 24 °F    
Average Humidity 62    
Maximum Humidity 85    
Minimum Humidity 39    
Precipitation  
Precipitation T in 0.06 in 1.66 in (2004)
Month to date precipitation 0.30 0.76  
Year to date precipitation 1.07 2.05  
Snow  
Snow T in 0.20 in 18.40 in (2004)
Month to date snowfall 4.5 3.5  
Since 1 July snowfall 18.3 30.0  
Snow Depth 0.00 in    
Sea Level Pressure  
Sea Level Pressure 30.07 in    
Wind  
Wind Speed 16 mph (ENE)    
Max Wind Speed 28 mph    
Max Gust Speed 35 mph    
Visibility 10 miles    
Events Snow    
T = Trace of Precipitation, MM = Missing Value Source: NWS Daily Summary

Daily Weather History Graph

Daily Weather History Graph

Search for Another Location

Airport:

Trip Planner

Search our weather history database for the weather conditions in past years. The results will help you decide how hot, cold, wet, or windy it might be!

Date:

Astronomy

Mar. 15, 2014 Rise Set
Actual Time 7:37 AM CDT 7:32 PM CDT
Civil Twilight 7:09 AM CDT 8:00 PM CDT
Nautical Twilight 6:36 AM CDT 8:32 PM CDT
Astronomical Twilight 6:03 AM CDT 9:05 PM CDT
Moon 6:52 PM CDT (3/15) 6:50 AM CDT (3/15)
Length of Visible Light 12h 50m
Length of Day
11h 54m
Waxing Gibbous, 99% of the Moon is Illuminated
Mar 15
Waxing Gibbous
Mar 16
Full
Mar 23
Last Quarter
Mar 30
New
Apr 7
First Quarter

Hourly Weather History & Observations

Time (CDT) Temp. Windchill Dew Point Humidity Pressure Visibility Wind Dir Wind Speed Gust Speed Precip Events Conditions
12:52 AM 33.1 °F 27.7 °F 26.1 °F 75% 29.96 in 10.0 mi East 5.8 mph - N/A   Scattered Clouds
1:52 AM 30.9 °F 26.2 °F 25.0 °F 79% 29.96 in 10.0 mi East 4.6 mph - N/A   Clear
2:52 AM 33.1 °F 24.9 °F 28.0 °F 82% 29.95 in 10.0 mi East 10.4 mph - N/A   Clear
3:52 AM 35.1 °F 26.9 °F 30.0 °F 82% 29.94 in 10.0 mi East 11.5 mph - N/A   Clear
4:52 AM 34.0 °F 24.6 °F 28.0 °F 79% 29.91 in 10.0 mi ESE 13.8 mph - N/A   Clear
5:52 AM 30.9 °F 21.7 °F 27.0 °F 85% 29.89 in 10.0 mi ESE 11.5 mph - N/A   Clear
6:52 AM 28.9 °F 19.2 °F 25.0 °F 85% 29.89 in 10.0 mi ESE 11.5 mph - N/A   Clear
7:52 AM 32.0 °F 25.6 °F 26.1 °F 79% 29.92 in 10.0 mi East 6.9 mph - N/A   Clear
8:52 AM 34.0 °F 24.6 °F 24.1 °F 67% 29.93 in 10.0 mi East 13.8 mph - N/A   Clear
9:52 AM 37.0 °F 26.4 °F 23.0 °F 57% 29.93 in 10.0 mi East 20.7 mph 31.1 mph N/A   Clear
10:52 AM 39.9 °F 30.5 °F 21.0 °F 47% 29.95 in 10.0 mi East 19.6 mph 32.2 mph N/A   Clear
11:52 AM 39.9 °F 30.0 °F 21.0 °F 47% 29.98 in 10.0 mi East 21.9 mph 34.5 mph N/A   Clear
12:52 PM 42.1 °F 32.3 °F 19.9 °F 41% 30.00 in 10.0 mi East 24.2 mph 32.2 mph N/A   Clear
1:52 PM 43.0 °F 33.8 °F 21.9 °F 43% 30.01 in 10.0 mi East 23.0 mph 31.1 mph N/A   Clear
2:52 PM 42.1 °F 32.8 °F 23.0 °F 47% 30.05 in 10.0 mi ENE 21.9 mph 29.9 mph N/A   Mostly Cloudy
3:52 PM 42.1 °F 33.9 °F 24.1 °F 49% 30.07 in 10.0 mi ENE 17.3 mph - N/A   Overcast
4:52 PM 39.0 °F 29.0 °F 28.0 °F 65% 30.11 in 10.0 mi NE 20.7 mph 32.2 mph N/A   Overcast
5:52 PM 36.0 °F 25.3 °F 25.0 °F 64% 30.15 in 10.0 mi NE 19.6 mph 27.6 mph N/A   Overcast
6:52 PM 33.1 °F 20.9 °F 25.0 °F 72% 30.21 in 6.0 mi NE 21.9 mph 31.1 mph 0.00 in Snow Light Snow
7:25 PM 30.9 °F 19.1 °F 25.0 °F 79% 30.21 in 8.0 mi NNE 18.4 mph 29.9 mph 0.00 in   Overcast
7:32 PM 30.9 °F 18.7 °F 25.0 °F 79% 30.21 in 10.0 mi NNE 19.6 mph 26.5 mph 0.00 in   Overcast
7:52 PM 30.9 °F 18.7 °F 25.0 °F 79% 30.25 in 10.0 mi NNE 19.6 mph 26.5 mph 0.00 in   Overcast
8:02 PM 30.9 °F 20.2 °F 24.1 °F 76% 30.22 in 10.0 mi NE 15.0 mph - N/A   Overcast
8:52 PM 30.9 °F 21.2 °F 23.0 °F 72% 30.29 in 10.0 mi NNE 12.7 mph - N/A   Overcast
9:52 PM 30.0 °F 20.5 °F 21.9 °F 72% 30.34 in 10.0 mi NNE 11.5 mph - N/A   Overcast
10:52 PM 30.0 °F 20.0 °F 21.9 °F 72% 30.36 in 10.0 mi NNE 12.7 mph - N/A   Overcast
11:52 PM 30.0 °F 20.0 °F 19.9 °F 66% 30.37 in 10.0 mi NNE 12.7 mph - N/A   Overcast